Regional Weather Roundup
Issued by NWS

Home | Current Version | Previous Version | Text Only | Print | Product List | Glossary Off
Versions: 1 2 3 4 5 6 7 8 9 10 11 12 13 14 15 16 17 18 19 20 21 22 23 24 25 26 27 28 29 30 31 32 33 34 35 36 37 38 39 40 41 42 43 44 45 46 47 48 49 50

000
ASUS43 KDMX 292107
RWRIA

WEATHER ROUNDUP FOR IOWA
NATIONAL WEATHER SERVICE DES MOINES IA
400 PM CDT SUN MAR 29 2015

NOTE: "FAIR" INDICATES FEW OR NO CLOUDS BELOW 12,000 FEET WITH NO
SIGNIFICANT WEATHER AND/OR OBSTRUCTIONS TO VISIBILITY.

* - THESE STATIONS ARE NOT NWS STATIONS...THUS NOT UNDER NWS
QUALITY CONTROL.  THEY ALSO DO NOT REPORT WEATHER SUCH
AS PRECIPITATION OR FOG.

IAZ001>003-012>014-020>022-031>034-043>046-292200-
   NORTHWEST IOWA

CITY           SKY/WX    TMP DP  RH WIND       PRES   REMARKS
CARROLL *      SUNNY     59  32  36 NW25G37   29.95R
CHEROKEE *     SUNNY     59  27  29 N22G33    29.96R
DENISON *      SUNNY     59  28  31 NW22G33   29.96S
LE MARS *      SUNNY     61  27  27 NW26G33   30.00R
ORANGE CITY *  SUNNY     61  18  18 N24G33    29.98R
SHELDON *      SUNNY     57  27  30 NW26G38   29.95R
SIOUX CITY     SUNNY     62  26  25 NW26G37   29.99R
SPENCER        SUNNY     60  25  26 NW25G39   29.93R
STORM LAKE *   SUNNY     59  27  29 NW29G41   29.96R
$$

IAZ055>058-069>071-079>083-090>094-292200-
   SOUTHWEST IOWA

CITY           SKY/WX    TMP DP  RH WIND       PRES   REMARKS
ATLANTIC *     SUNNY     57  36  44 NW23G32   29.99S
AUDUBON *      SUNNY     57  34  41 NW18G28   29.98S
CLARINDA *     SUNNY     59  37  44 NW25G33   30.03R
COUNCIL BLFS * SUNNY     59  36  41 NW16G28   30.02S
CRESTON *      PTSUNNY   55  39  54 NW28G36   29.98R
HARLAN  *      SUNNY     57  34  41 NW24      30.03S
LAMONI         PTSUNNY   57  39  51 NW25G38   29.96R
RED OAK *      SUNNY     59  36  41 N17G29    30.02R
SHENANDOAH *   SUNNY     59  37  44 NW21G29   30.03S
$$

IAZ047>049-059>061-072>074-084-292200-
   CENTRAL IOWA

CITY           SKY/WX    TMP DP  RH WIND       PRES   REMARKS
AMES           SUNNY     60  32  34 NW23G35   29.89R
ANKENY *       MOSUNNY   61  36  39 NW25G33   29.90R
CHARITON *     PTSUNNY   59  39  47 NW23G36   29.92R
DES MOINES     MOSUNNY   61  36  39 NW28G37   29.92R
GRINNELL*      PTSUNNY   57  41  54 W25G35    29.87R
KNOXVILLE *    PTSUNNY   57  39  51 NW30G38   29.89R
MARSHALLTOWN   MOSUNNY   58  37  45 NW29G44   29.86R
PELLA *        MOSUNNY   57  45  62 NW20G37   29.90R
PERRY *          N/A     61  32  33 NW24G36   29.93R
$$

IAZ004>006-015-016-023>025-035-036-292200-
   NORTH CENTRAL IOWA

CITY           SKY/WX    TMP DP  RH WIND       PRES   REMARKS
ALGONA *       SUNNY     57  25  28 N31G44    29.89R
CLARION *      SUNNY     57  32  38 NW32G41   29.87R
ESTHERVILLE    SUNNY     57  23  26 N35G46    29.90R
FORT DODGE *   SUNNY     59  34  38 NW17G25   29.91R
MASON CITY     SUNNY     56  32  40 NW26G38   29.85R
FOREST CITY *  SUNNY     54  28  37 NW31G39   29.85R
IOWA FALLS *     N/A     57  37  47 NW30      29.87R
$$

IAZ007>011-017>019-026>030-037>042-050>054-066-292200-
   NORTHEAST IOWA

CITY           SKY/WX    TMP DP  RH WIND       PRES   REMARKS
CEDAR RAPIDS   PTSUNNY   58  42  55 NW32G41   29.79R
CHARLES CITY * MOSUNNY   54  39  58 NW26G38   29.81R
CLINTON *      SUNNY     52  43  71 SW17      29.79S
DECORAH *      CLOUDY    45  36  70 NW15G32   29.77R
DUBUQUE        CLOUDY    52  41  66 NW29G40   29.75R
MONTICELLO *   PTSUNNY   55  45  67 NW24G40   29.77R
OELWEIN *      PTSUNNY   52  39  62 NW30G39   29.81R
WATERLOO       PTSUNNY   55  38  52 NW22G38   29.82R
$$

IAZ064-065-067-068-078-292200-
   EAST CENTRAL IOWA

CITY           SKY/WX    TMP DP  RH WIND       PRES   REMARKS
DAVENPORT      CLOUDY    54  41  61 SW17      29.78F
IOWA CITY      CLOUDY    59  40  49 NW25G36   29.81R
MT. PLEASANT * CLOUDY    55  41  58 W18       29.85S
MUSCATINE *    CLOUDY    59  41  51 W17G24    29.81S
QUAD CITIES    CLOUDY    55  40  56 SW14      29.79F
$$

IAZ062-063-075>077-085>089-095>099-292200-
   SOUTHEAST IOWA

CITY           SKY/WX    TMP DP  RH WIND       PRES   REMARKS
BURLINGTON     CLOUDY    57  41  55 W15       29.85F
FAIRFIELD *    CLOUDY    59  39  47 W16G26    29.86R
FORT MADISON * CLOUDY    55  41  58 W13G22    29.87F
KEOKUK *       PTSUNNY   59  41  51 W16       29.87F
OSKALOOSA *    PTSUNNY   57  41  54 NW35G41   29.87R
CENTERVILLE *  MOSUNNY   59  41  51 NW28G37   29.91R
OTTUMWA        CLOUDY    58  40  51 NW28G33   29.87R
WASHINGTON *   CLOUDY    57  41  54 W20G29    29.83S
$$

ABBREVIATIONS USED IN REMARKS
   TC - TEMPERATURES IN CELSIUS
  WCI - WIND CHILL INDEX
   HX - HEAT INDEX
  VSB - VISIBILITY
$$




USA.gov is the U.S. government's official web portal to all federal, state and local government web resources and services.